DW0542 Weather Reports


time (UTC)temp
F
wind
direction
speed
knots
gust
knots
rain 1hr
in
rain 24hr
in
rain mn
in
humidity
%
barometer
mb
20260506080106 57 166 0.0 4.3 0.00 0.00 0.00 83 1010.7
20260506073038 58 126 0.0 5.2 0.00 0.00 0.00 81 1010.6
20260506071537 58 189 0.0 9.6 0.00 0.00 0.00 81 1010.5
20260506061552 59 200 0.9 9.6 0.00 0.00 0.00 78 1010.4
20260506044533 61 190 1.7 5.2 0.00 0.00 0.00 72 1010.9
20260506043032 61 155 0.9 7.0 0.00 0.00 0.00 72 1010.9
20260506041531 61 187 0.9 7.8 0.00 0.00 0.00 70 1010.9
20260506040029 61 186 1.7 8.7 0.00 0.00 0.00 70 1011.0
20260506034531 61 194 2.6 8.7 0.00 0.00 0.00 70 1011.0
20260506033027 61 131 0.9 8.7 0.00 0.00 0.00 71 1010.9
20260506031525 60 195 0.0 7.0 0.00 0.00 0.00 71 1010.8
20260506030036 60 95 0.0 5.2 0.00 0.00 0.00 71 1010.8
20260506024546 60 193 0.0 3.5 0.00 0.00 0.00 72 1010.9
20260506023023 59 74 0.0 0.0 0.00 0.00 0.00 72 1010.9
20260506021521 60 76 0.0 7.0 0.00 0.00 0.00 71 1011.0
20260506020017 60 198 0.9 9.6 0.00 0.00 0.00 71 1010.9
20260506014514 60 182 0.0 6.1 0.00 0.00 0.00 71 1010.8
20260506013018 60 88 0.0 7.0 0.00 0.00 0.00 69 1010.6
20260506011542 60 129 0.0 5.2 0.00 0.00 0.00 69 1010.6
20260506010038 61 151 0.0 6.1 0.00 0.00 0.00 68 1010.3
20260506004533 61 200 0.0 7.0 0.00 0.00 0.00 67 1010.2
20260506003034 62 174 0.0 0.9 0.00 0.00 0.00 67 1010.1
20260506001526 62 151 0.0 6.1 0.00 0.00 0.00 66 1009.8
20260506000023 63 118 0.0 3.5 0.00 0.00 0.00 64 1009.6
20260505234617 64 143 0.0 3.5 0.00 0.00 0.00 63 1009.3
20260505233018 66 146 0.0 1.7 0.00 0.00 0.00 61 1009.0
20260505231509 67 205 0.0 4.3 0.00 0.00 0.00 59 1008.8
20260505230015 68 161 0.0 4.3 0.00 0.00 0.00 57 1008.7
20260505224534 69 154 0.0 7.0 0.00 0.00 0.00 54 1008.4
20260505223031 70 110 0.0 7.8 0.00 0.00 0.00 54 1008.0
20260505221523 71 55 0.0 6.1 0.00 0.00 0.00 53 1007.9
20260505220022 71 194 0.0 7.8 0.00 0.00 0.00 53 1008.0
20260505214520 72 165 0.0 7.8 0.00 0.00 0.00 52 1008.0
20260505213017 72 166 0.0 7.0 0.00 0.00 0.00 51 1008.0
20260505211515 73 180 0.0 10.4 0.00 0.00 0.00 52 1007.7
20260505210014 74 188 0.9 6.1 0.00 0.00 0.00 51 1007.8
20260505204514 75 174 0.9 9.6 0.00 0.00 0.00 49 1007.7
20260505203013 75 201 0.0 7.8 0.00 0.00 0.00 50 1007.7
20260505201612 76 167 1.7 7.8 0.00 0.00 0.00 49 1007.6
20260505200042 76 157 0.0 15.6 0.00 0.00 0.00 47 1007.6
20260505194547 77 171 0.0 9.6 0.00 0.00 0.00 47 1007.7
20260505193037 77 169 0.0 15.6 0.00 0.00 0.00 46 1007.6
20260505191537 78 178 0.9 9.6 0.00 0.00 0.00 45 1007.7
20260505190034 77 168 1.7 8.7 0.00 0.00 0.00 46 1007.9
20260505184535 78 157 0.9 11.3 0.00 0.00 0.00 45 1008.0
20260505183032 78 170 0.0 9.6 0.00 0.00 0.00 44 1008.0
20260505181529 77 183 3.5 12.2 0.00 0.00 0.00 45 1008.0
20260505180026 76 176 0.0 6.1 0.00 0.00 0.00 49 1008.3
20260505174525 76 114 1.7 9.6 0.00 0.00 0.00 51 1008.6
20260505171521 76 119 1.7 9.6 0.00 0.00 0.00 50 1009.0
20260505170024 75 125 0.0 15.6 0.00 0.00 0.00 52 1008.9
20260505164537 75 173 1.7 16.5 0.00 0.00 0.00 50 1009.3
20260505163051 73 238 0.9 7.8 0.00 0.00 0.00 53 1009.3
20260505161543 72 181 1.7 12.2 0.00 0.00 0.00 56 1009.7
20260505153037 67 212 0.9 6.1 0.00 0.00 0.00 63 1010.4
20260505151526 66 197 0.0 7.8 0.00 0.00 0.00 64 1010.6
20260505124547 56 134 0.0 4.3 0.00 0.00 0.00 79 1011.1
20260505123043 56 196 0.0 7.0 0.00 0.00 0.00 82 1011.2
20260505121543 55 209 2.6 8.7 0.00 0.00 0.00 82 1011.2
20260505120041 55 193 0.0 4.3 0.00 0.00 0.00 85 1011.0
20260505114545 53 176 0.9 7.0 0.00 0.00 0.00 86 1011.1
20260505113020 53 159 0.0 6.1 0.00 0.00 0.00 88 1011.0
20260505111520 52 153 0.0 2.6 0.00 0.00 0.00 89 1010.8
20260505101652 48 85 0.0 0.0 0.00 0.00 0.00 90 1010.3
20260505100052 48 84 0.0 0.0 0.00 0.00 0.00 89 1010.3
20260505094546 48 84 0.0 0.0 0.00 0.00 0.00 89 1010.2
20260505093046 47 84 0.0 0.0 0.00 0.00 0.00 89 1010.2
20260505091555 48 84 0.0 0.0 0.00 0.00 0.00 89 1010.4
20260505090054 47 84 0.0 0.0 0.00 0.00 0.00 89 1010.5
20260505084545 47 84 0.0 0.0 0.00 0.00 0.00 89 1010.5
20260505083047 47 84 0.0 0.0 0.00 0.00 0.00 88 1010.5
20260505081555 47 84 0.0 0.0 0.00 0.00 0.00 88 1010.6